CW1084 Weather Reports


Display with metric or nautical units.
time (UTC)temp
F
wind
direction
speed
MPH
gust
MPH
rain 1hr
in
rain 24hr
in
rain mn
in
humidity
%
barometer
mb
20260905120302 82 320 0.0 4.0 0.00 0.00 0.00 100 1009.6
20260905120022 82 320 0.0 4.0 0.00 0.00 0.00 100 1009.5
20260905115245 82 312 1.0 8.0 0.00 0.00 0.00 100 1009.5
20260905114747 81 294 1.0 8.0 0.00 0.00 0.00 100 1009.4
20260905114508 81 318 1.0 4.0 0.00 0.00 0.00 100 1009.4
20260905113745 0 0.0 0.0 0.00 0.00 0.00 1009.4
20260905113201 0 0.0 0.0 0.00 0.00 0.00 1009.3
20260905112842 0 0.0 0.0 0.00 0.00 0.00 1009.3
20260905112028 0 0.0 0.0 0.00 0.00 0.00 1009.2
20260905111445 0 0.0 0.0 0.00 0.00 0.00 1009.2
20260905110900 0 0.0 0.0 0.00 0.00 0.00 1009.1
20260905110319 0 0.0 0.0 0.00 0.00 0.00 1009.1
20260905105737 0 0.0 0.0 0.00 0.00 0.00 1008.9
20260905105208 0 0.0 0.0 0.00 0.00 0.00 1008.9
20260905104704 0 0.0 0.0 0.00 0.00 0.00 1009.0
20260905104132 0 0.0 0.0 0.00 0.00 0.00 1008.9
20260905103610 0 0.0 0.0 0.00 0.00 0.00 1008.8
20260905103337 0 0.0 0.0 0.00 0.00 0.00 1008.7
20260905102607 0 0.0 0.0 0.00 0.00 0.00 1008.6
20260905102106 0 0.0 0.0 0.00 0.00 0.00 1008.6
20260905101608 0 0.0 0.0 0.00 0.00 0.00 1008.5
20260905101106 0 0.0 0.0 0.00 0.00 0.00 1008.5
20260905100820 0 0.0 6.0 0.00 0.00 0.00 1008.5
20260905100106 80 34 1.0 6.0 0.00 0.00 0.00 100 1008.4
20260905095549 80 34 1.0 6.0 0.00 0.00 0.00 100 1008.3
20260905095022 80 34 1.0 6.0 0.00 0.00 0.00 100 1008.4
20260905094518 80 332 1.0 6.0 0.00 0.00 0.00 100 1008.3
20260905094242 80 10 1.0 6.0 0.00 0.00 0.00 100 1008.4
20260905093513 80 253 0.0 5.0 0.00 0.00 0.00 100 1008.3
20260905093236 80 240 0.0 3.0 0.00 0.00 0.00 100 1008.4
20260905092509 80 227 0.0 5.0 0.00 0.00 0.00 100 1008.4
20260905092000 79 69 0.0 5.0 0.00 0.00 0.00 100 1008.3
20260905091452 79 350 0.0 6.0 0.00 0.00 0.00 100 1008.3
20260905090952 79 345 0.0 5.0 0.00 0.00 0.00 100 1008.3
20260905090658 78 191 0.0 0.0 0.00 0.00 0.00 100 1008.4
20260905090559 78 313 0.0 5.0 0.00 0.00 0.00 100 1008.2
20260905085710 78 191 0.0 4.0 0.00 0.00 0.00 100 1008.4
20260905084921 78 191 0.0 4.0 0.00 0.00 0.00 100 1008.3
20260905084419 78 235 0.0 0.0 0.00 0.00 0.00 100 1008.4
20260905084155 78 236 0.0 0.0 0.00 0.00 0.00 100 1008.5
20260905083412 78 235 0.0 2.0 0.00 0.00 0.00 100 1008.5
20260905082908 78 236 0.0 6.0 0.00 0.00 0.00 100 1008.6
20260905082409 77 236 0.0 6.0 0.00 0.00 0.00 100 1008.5
20260905081904 77 236 0.0 3.0 0.00 0.00 0.00 100 1008.6
20260905081359 77 236 0.0 4.0 0.00 0.00 0.00 100 1008.7
20260905080858 77 236 0.0 7.0 0.00 0.00 0.00 100 1008.6
20260905080404 77 236 0.0 7.0 0.00 0.00 0.00 100 1008.7
20260905075841 77 236 0.0 4.0 0.00 0.00 0.00 100 1008.8
20260905075342 77 236 1.0 6.0 0.00 0.00 0.00 100 1008.8
20260905075049 77 236 0.0 6.0 0.00 0.00 0.00 100 1008.8
20260905074323 77 236 0.0 3.0 0.00 0.00 0.00 100 1008.8
20260905073823 77 236 0.0 3.0 0.00 0.00 0.00 100 1008.8
20260905073319 77 236 0.0 10.0 0.00 0.00 0.00 100 1008.8
20260905072805 77 236 1.0 10.0 0.00 0.00 0.00 100 1008.8
20260905072311 77 238 0.0 5.0 0.00 0.00 0.00 100 1008.8
20260905071808 78 238 0.0 4.0 0.00 0.00 0.00 100 1008.9
20260905071258 77 238 0.0 6.0 0.00 0.01 0.00 100 1008.9
20260905070800 77 238 1.0 6.0 0.00 0.01 0.00 100 1008.8
20260905070252 77 239 1.0 6.0 0.00 0.01 0.00 100 1008.8
20260905065753 77 239 1.0 6.0 0.00 0.01 0.00 100 1008.8
20260905065252 77 239 1.0 7.0 0.00 0.01 0.00 100 1008.9
20260905064731 77 239 1.0 7.0 0.00 0.01 0.00 100 1009.0
20260905064221 77 238 1.0 6.0 0.00 0.01 0.00 100 1009.0
20260905063719 77 238 1.0 6.0 0.00 0.01 0.00 100 1009.0
20260905063217 77 239 1.0 6.0 0.00 0.01 0.00 100 1009.0
20260905062714 77 239 1.0 7.0 0.00 0.01 0.00 100 1009.0
20260905062213 78 239 1.0 7.0 0.00 0.01 0.00 100 1009.0
20260905061709 78 239 1.0 6.0 0.00 0.01 0.00 100 1009.1
20260905061206 78 239 1.0 9.0 0.00 0.01 0.00 100 1009.1
20260905060707 78 239 1.0 9.0 0.00 0.01 0.00 100 1009.1
20260905060203 78 231 0.0 6.0 0.00 0.01 0.00 100 1009.2
20260905055650 78 231 0.0 6.0 0.00 0.02 0.00 100 1009.3
20260905055143 78 231 0.0 3.0 0.00 0.03 0.00 100 1009.3
20260905054640 78 231 0.0 3.0 0.00 0.04 0.00 100 1009.4
20260905054135 78 231 0.0 3.0 0.00 0.05 0.00 100 1009.5
20260905053637 78 231 0.0 3.0 0.00 0.08 0.00 100 1009.6
20260905053139 78 231 0.0 4.0 0.00 0.10 0.00 100 1009.7
20260905052637 78 231 0.0 4.0 0.00 0.13 0.00 100 1009.8
20260905052135 78 231 0.0 6.0 0.00 0.23 0.00 100 1009.9
20260905051637 78 231 1.0 7.0 0.00 0.39 0.00 100 1009.8
20260905051117 78 230 0.0 7.0 0.00 0.62 0.00 100 1009.7
20260905050609 78 230 0.0 4.0 0.00 0.93 0.00 100 1009.8
20260905050112 78 229 0.0 5.0 0.00 1.14 0.00 100 1009.9
20260905045555 78 229 0.0 6.0 0.00 1.21 0.00 100 1010.0
20260905045051 78 229 1.0 6.0 0.00 1.23 0.00 100 1010.1
20260905044538 78 229 1.0 5.0 0.00 1.26 0.00 100 1010.1
20260905044033 78 229 1.0 6.0 0.00 1.26 0.00 100 1010.1
20260905043530 78 229 1.0 6.0 0.00 1.27 0.00 100 1010.1
20260905043021 78 227 0.0 6.0 0.00 1.34 0.00 100 1010.1
20260905042523 78 227 0.0 4.0 0.00 1.35 0.00 100 1010.2
20260905042237 78 227 0.0 4.0 0.00 1.35 0.00 100 1010.3
20260905041506 78 227 0.0 3.0 0.00 1.35 0.00 100 1010.3
20260905041000 78 227 0.0 2.0 0.00 1.35 0.00 100 1010.4
20260905040455 78 227 0.0 0.0 0.00 1.35 0.00 100 1010.5
20260905035939 78 227 0.0 0.0 0.00 1.35 1.35 100 1010.5
20260905035440 78 227 0.0 0.0 0.00 1.35 1.35 100 1010.4
20260905034920 78 227 0.0 0.0 0.00 1.35 1.35 100 1010.4
20260905034356 78 227 0.0 0.0 0.00 1.35 1.35 100 1010.4
20260905033853 78 227 0.0 0.0 0.00 1.35 1.35 100 1010.5
20260905033556 78 227 0.0 0.0 0.00 1.35 1.35 100 1010.6
20260905032838 78 227 0.0 0.0 0.00 1.35 1.35 100 1010.5
20260905032550 78 227 0.0 0.0 0.00 1.35 1.35 100 1010.5
20260905031825 78 227 0.0 0.0 0.00 1.35 1.35 100 1010.6
20260905031310 78 227 0.0 0.0 0.00 1.35 1.35 100 1010.6
20260905030805 78 227 0.0 0.0 0.00 1.35 1.35 100 1010.5
20260905030259 79 227 0.0 0.0 0.00 1.35 1.35 100 1010.4
20260905025756 79 227 0.0 0.0 0.00 1.35 1.35 100 1010.4
20260905025249 79 227 0.0 0.0 0.00 1.35 1.35 100 1010.6
20260905024741 79 227 0.0 0.0 0.00 1.35 1.35 100 1010.7
20260905024509 79 227 0.0 0.0 0.00 1.35 1.35 100 1010.8
20260905023711 79 227 0.0 0.0 0.00 1.35 1.35 100 1010.7
20260905023206 79 227 0.0 0.0 0.00 1.35 1.35 100 1010.7
20260905022708 79 227 0.0 0.0 0.00 1.35 1.35 100 1011.0
20260905022617 79 227 0.0 0.0 0.00 1.35 1.35 100 1010.9
20260905021849 79 227 0.0 0.0 0.00 1.35 1.35 100 1010.9
20260905021101 79 227 0.0 0.0 0.00 1.35 1.35 100 1010.8
20260905020555 79 227 0.0 0.0 0.00 1.35 1.35 100 1010.9
20260905020100 79 227 0.0 0.0 0.00 1.35 1.35 100 1010.8
20260905015530 79 227 0.0 0.0 0.00 1.35 1.35 100 1010.7
20260905015237 79 227 0.0 2.0 0.00 1.35 1.35 100 1010.7
20260905014510 79 227 0.0 2.0 0.00 1.35 1.35 100 1010.5
20260905013958 79 227 0.0 0.0 0.00 1.35 1.35 100 1010.4
20260905013453 80 227 0.0 0.0 0.00 1.35 1.35 100 1010.5
20260905012947 80 227 0.0 0.0 0.00 1.35 1.35 100 1010.6
20260905012440 80 227 0.0 0.0 0.00 1.35 1.35 100 1010.6
20260905011909 80 227 0.0 0.0 0.00 1.35 1.35 100 1010.5
20260905011415 80 227 0.0 0.0 0.00 1.35 1.35 100 1010.5
20260905010855 80 227 0.0 0.0 0.00 1.35 1.35 100 1010.4
20260905010413 80 227 0.0 0.0 0.00 1.35 1.35 100 1010.4
20260905005857 81 227 0.0 0.0 0.00 1.35 1.35 100 1010.4
20260905005350 81 227 0.0 0.0 0.00 1.35 1.35 100 1010.4
20260905004846 81 227 0.0 0.0 0.00 1.35 1.35 100 1010.3
20260905004341 81 227 0.0 0.0 0.00 1.35 1.35 100 1010.3
20260905003841 81 227 0.0 0.0 0.00 1.35 1.35 100 1010.3
20260905003554 81 227 0.0 0.0 0.00 1.35 1.35 100 1010.4
20260905002828 82 227 0.0 2.0 0.00 1.35 1.35 100 1010.4
20260905002305 82 227 0.0 2.0 0.00 1.35 1.35 100 1010.4
20260905001750 82 227 0.0 0.0 0.00 1.35 1.35 100 1010.1
20260905001256 82 227 0.0 0.0 0.00 1.35 1.35 100 1010.1
20260905000743 82 227 0.0 0.0 0.00 1.35 1.35 100 1010.1
20260905000243 82 227 0.0 0.0 0.00 1.35 1.35 100 1010.1
20260905000233 83 227 0.0 0.0 0.00 1.35 1.35 100 1009.9
20260904235236 83 227 0.0 0.0 0.00 1.35 1.35 100 1009.9
20260904234724 83 227 0.0 0.0 0.00 1.35 1.35 100 1009.8
20260904234222 83 227 0.0 0.0 0.00 1.35 1.35 100 1009.7
20260904233720 84 227 0.0 0.0 0.00 1.35 1.35 100 1009.6
20260904233216 84 227 0.0 0.0 0.00 1.35 1.35 100 1009.6
20260904232706 84 227 0.0 0.0 0.00 1.35 1.35 100 1009.5
20260904232209 85 227 0.0 0.0 0.00 1.35 1.35 100 1009.5
20260904231713 85 227 0.0 0.0 0.00 1.35 1.35 100 1009.6
20260904231431 85 227 0.0 1.0 0.00 1.35 1.35 100 1009.6
20260904230925 86 227 0.0 1.0 0.00 1.35 1.35 100 1009.5
20260904230422 86 227 0.0 0.0 0.00 1.35 1.35 100 1009.6
20260904225616 87 227 0.0 0.0 0.00 1.35 1.35 100 1009.7
20260904225117 87 227 0.0 0.0 0.00 1.35 1.35 100 1009.7
20260904224604 87 227 0.0 0.0 0.00 1.35 1.35 100 1009.8
20260904224106 88 227 0.0 0.0 0.00 1.35 1.35 100 1009.9
20260904223534 88 227 0.0 0.0 0.00 1.35 1.35 100 1010.1
20260904223036 89 227 0.0 0.0 0.00 1.35 1.35 100 1010.4
20260904222741 89 227 0.0 3.0 0.00 1.35 1.35 100 1010.5
20260904221950 89 227 0.0 3.0 0.00 1.35 1.35 100 1010.7
20260904221454 89 227 0.0 0.0 0.00 1.35 1.35 100 1010.9
20260904221213 90 227 0.0 0.0 0.00 1.35 1.35 100 1010.9
20260904220713 90 227 0.0 0.0 0.00 1.35 1.35 100 1010.7
20260904215919 90 227 0.0 0.0 0.00 1.35 1.35 100 1010.8
20260904215408 90 227 0.0 0.0 0.00 1.35 1.35 100 1011.0
20260904215142 90 227 0.0 0.0 0.00 1.35 1.35 100 1011.0
20260904214357 90 227 0.0 0.0 0.00 1.35 1.35 100 1010.7
20260904213849 90 227 0.0 0.0 0.00 1.35 1.35 100 1010.8
20260904213338 90 227 0.0 0.0 0.00 1.35 1.35 100 1010.9
20260904212837 91 227 0.0 0.0 0.00 1.35 1.35 100 1010.8
20260904212316 90 227 0.0 0.0 0.00 1.35 1.35 100 1010.6
20260904211808 89 227 0.0 0.0 0.00 1.35 1.35 100 1010.5
20260904211302 89 227 0.0 0.0 0.00 1.35 1.35 100 1010.6
20260904210800 89 227 0.0 0.0 0.00 1.35 1.35 100 1010.7
20260904210258 89 227 0.0 0.0 0.00 1.35 1.35 100 1010.8
20260904205741 89 227 0.0 0.0 0.00 1.35 1.35 100 1010.6
20260904205242 89 227 0.0 0.0 0.00 1.35 1.35 100 1010.4
20260904204737 90 227 0.0 0.0 0.00 1.35 1.35 3 1010.3
20260904204228 90 227 0.0 0.0 0.00 1.35 1.35 7 1010.6
20260904203719 91 227 0.0 0.0 0.00 1.35 1.35 8 1010.5
20260904203212 91 227 0.0 0.0 0.00 1.35 1.35 12 1010.6
20260904202657 91 227 0.0 0.0 0.00 1.35 1.35 16 1010.4
20260904202157 92 227 0.0 0.0 0.00 1.35 1.35 19 1010.5
20260904201648 92 227 0.0 0.0 0.00 1.35 1.35 20 1010.3
20260904201140 93 227 0.0 0.0 0.00 1.35 1.35 19 1010.5
20260904200640 93 227 0.0 2.0 0.00 1.35 1.35 17 1010.5
20260904200121 93 227 0.0 2.0 0.00 1.35 1.35 18 1010.7
20260904195855 93 227 0.0 2.0 0.00 1.35 1.35 17 1010.7
20260904195607 93 227 0.0 2.0 0.00 1.35 1.35 17 1010.7
20260904195042 92 227 0.0 4.0 0.00 1.35 1.35 17 1010.7
20260904194030 92 227 0.0 4.0 0.00 1.35 1.35 17 1010.8
20260904193513 92 227 0.0 2.0 0.00 1.35 1.35 15 1010.8
20260904193007 92 227 0.0 0.0 0.00 1.35 1.35 13 1010.9
20260904192511 92 227 0.0 5.0 0.00 1.35 1.35 12 1010.8
20260904192007 92 227 0.0 5.0 0.00 1.35 1.35 12 1010.9
20260904191504 91 229 0.0 4.0 0.00 1.35 1.35 10 1010.9
20260904190949 0 0.0 0.0 0.00 1.35 1.35 1011.0
20260904190409 0 0.0 0.0 0.00 1.35 1.35 1011.1
20260904185906 0 0.0 0.0 0.00 1.35 1.35 1011.2
20260904185634 0 0.0 0.0 0.00 1.35 1.35 1011.2
20260904184857 0 0.0 0.0 0.00 1.35 1.35 1011.3
20260904184334 0 0.0 0.0 0.00 1.35 1.35 1011.3
20260904183807 0 0.0 0.0 0.00 1.35 1.35 1011.3
20260904183309 0 0.0 0.0 0.00 1.35 1.35 1011.5
20260904182759 0 0.0 0.0 0.00 1.35 1.35 1011.6
20260904182252 0 0.0 0.0 0.00 1.35 1.35 1011.7
20260904181710 0 0.0 0.0 0.00 1.35 1.35 1011.8
20260904181200 0 0.0 0.0 0.00 1.35 1.35 1011.8
20260904180641 0 0.0 0.0 0.00 1.35 1.35 1011.9
20260904180105 0 0.0 0.0 0.00 1.35 1.35 1011.9
20260904175836 0 0.0 0.0 0.00 1.35 1.35 1011.9
20260904175108 0 0.0 0.0 0.00 1.35 1.35 1011.8
20260904174559 0 0.0 0.0 0.00 1.35 1.35 1011.9
20260904174051 0 0.0 0.0 0.00 1.35 1.35 1012.0
20260904173737 0 0.0 0.0 0.00 1.35 1.35 1012.1
20260904172920 0 0.0 0.0 0.00 1.35 1.35 1012.1
20260904172407 0 0.0 0.0 0.00 1.35 1.35 1012.1
20260904171847 0 0.0 0.0 0.00 1.35 1.35 1012.0
20260904171318 0 0.0 0.0 0.00 1.35 1.35 1012.0
20260904170816 0 0.0 0.0 0.00 1.35 1.35 1012.0
20260904170257 0 0.0 0.0 0.00 1.35 1.35 1012.1
20260904165755 0 0.0 0.0 0.00 1.35 1.35 1012.1
20260904165518 0 0.0 0.0 0.00 1.35 1.35 1012.2
20260904164922 0 0.0 0.0 0.00 1.35 1.35 1012.2
20260904164207 0 0.0 0.0 0.00 1.35 1.35 1012.2
20260904163659 0 0.0 0.0 0.00 1.35 1.35 1012.3
20260904163144 0 0.0 0.0 0.00 1.35 1.35 1012.3
20260904162834 0 0.0 0.0 0.00 1.35 1.35 1012.4
20260904162108 0 0.0 0.0 0.00 1.35 1.35 1012.3
20260904161606 0 0.0 0.0 0.00 1.35 1.35 1012.3
20260904161050 0 0.0 0.0 0.00 1.35 1.35 1012.3
20260904160551 0 0.0 0.0 0.00 1.35 1.35 1012.3
20260904160516 0 0.0 0.0 0.00 1.35 1.35 1012.3
20260904155529 0 0.0 0.0 0.00 1.35 1.35 1012.5
20260904155022 0 0.0 0.0 0.00 1.35 1.35 1012.6
20260904154517 0 0.0 0.0 0.00 1.35 1.35 1012.6
20260904154235 0 0.0 0.0 0.00 1.35 1.35 1012.5
20260904153459 0 0.0 0.0 0.00 1.35 1.35 1012.6
20260904153136 0 0.0 0.0 0.00 1.35 1.35 1012.7
20260904152410 0 0.0 0.0 0.00 1.35 1.35 1012.7
20260904151906 0 0.0 0.0 0.00 1.35 1.35 1012.6
20260904151359 0 0.0 0.0 0.00 1.35 1.35 1012.5
20260904150830 0 0.0 0.0 0.00 1.35 1.35 1012.5
20260904150310 0 0.0 0.0 0.00 1.35 1.35 1012.5
20260904145804 0 0.0 0.0 0.00 1.35 1.35 1012.6
20260904145312 0 0.0 0.0 0.00 1.35 1.35 1012.6
20260904145251 0 0.0 0.0 0.00 1.35 1.35 1012.6
20260904144230 0 0.0 0.0 0.00 1.35 1.35 1012.6
20260904143950 0 0.0 0.0 0.00 1.35 1.35 1012.8
20260904143211 0 0.0 0.0 0.00 1.35 1.35 1012.7
20260904142658 0 0.0 0.0 0.00 1.35 1.35 1012.8
20260904142651 0 0.0 0.0 0.00 1.35 1.35 1012.9
20260904141615 0 0.0 0.0 0.00 1.35 1.35 1012.9
20260904141334 0 0.0 0.0 0.00 1.35 1.35 1012.7
20260904140557 0 0.0 0.0 0.00 1.35 1.35 1012.6
20260904140049 0 0.0 0.0 0.00 1.35 1.35 1012.6
20260904135741 0 0.0 0.0 0.00 1.35 1.35 1012.6
20260904135008 0 0.0 0.0 0.00 1.35 1.35 1012.6
20260904134501 0 0.0 0.0 0.00 1.35 1.35 1012.6
20260904133931 0 0.0 0.0 0.00 1.35 1.35 1012.6
20260904133434 0 0.0 0.0 0.00 1.35 1.35 1012.6
20260904132931 0 0.0 0.0 0.00 1.35 1.35 1012.6
20260904132404 0 0.0 0.0 0.00 1.35 1.35 1012.6
20260904132125 0 0.0 0.0 0.00 1.35 1.35 1012.7
20260904131351 0 0.0 0.0 0.00 1.35 1.35 1012.7
20260904130810 0 0.0 0.0 0.00 1.35 1.35 1012.6
20260904130303 0 0.0 0.0 0.00 1.35 1.35 1012.7
20260904125739 0 0.0 0.0 0.00 1.35 1.35 1012.6
20260904125210 0 0.0 0.0 0.00 1.35 1.35 1012.7
20260904124706 0 0.0 0.0 0.00 1.35 1.35 1012.6
20260904124347 0 0.0 0.0 0.00 1.35 1.35 1012.8
20260904123805 0 0.0 0.0 0.00 1.35 1.35 1012.7
20260904123046 0 0.0 0.0 0.00 1.35 1.35 1012.6
20260904122505 0 0.0 0.0 0.00 1.35 1.35 1012.7
20260904121918 0 0.0 0.0 0.00 1.35 1.35 1012.7
20260904121355 0 0.0 0.0 0.00 1.35 1.35 1013.0
20260904120841 0 0.0 0.0 0.00 1.35 1.35 1013.0